Vertical_Velocity
-2 -3 -3 -2 -2 -1 -1 -2 -1 -2 3 -2 5 -5 -8 -5 0 -2 -1 4 3 -1 2 -4 -11 18 13 6 -1 -0 -2 2 5 1 0 -4 1 1 4 0 1 -2 -1 0
-2 -3 -0 1 0 -2 -2 -0 -1 -1 -3 1 3 -3 -2 -8 -5 -4 -3 -3 3 5 -3 0 -2 -4 9 2 9 1 -3 -3 -3 4 5 -1 5 7 3 4 2 1 1 2
-1 -0 1 1 1 2 -1 -1 -1 -3 -4 -1 3 2 -1 -0 -3 -0 -5 -3 -4 0 3 0 -1 -7 -10 12 9 4 2 3 1 6 -0 -2 5 -6 -9 -2 1 1 -1 1
-2 0 -2 -2 -2 -1 -0 -0 -2 -1 -3 -2 -3 -6 -1 -2 -1 -4 -0 -2 -4 -2 -0 2 -0 -7 -9 4 -4 -1 10 19 11 10 2 -0 -4 6 6 -13 7 4 2 2
-0 -0 0 -1 -3 -3 -3 -3 -4 -2 2 2 1 1 -8 -4 -2 -3 -2 -3 -2 -3 -1 4 3 -2 -5 -4 -1 5 -1 -3 5 1 7 3 -8 1 6 7 3 -2 1 1
-2 -1 -0 -1 2 -1 -2 -1 -1 -1 0 1 3 5 -4 -5 -10 -1 -4 -3 -4 -2 -1 1 3 -1 -2 -2 4 4 7 5 6 6 6 11 -7 -5 2 9 -11 -0 -2 7
1 1 -1 -2 -1 1 -2 -1 -2 -3 -1 -4 -0 1 -2 -1 -4 -5 -4 -4 -5 -2 -2 2 5 3 3 3 1 4 3 2 5 6 -1 115 -24 -7 -4 9 16 12 6 -1
-2 -3 -2 -3 -3 -4 -2 -1 -1 -2 0 -3 -1 0 -0 1 0 0 -2 -5 -5 -3 -2 2 -0 6 3 4 5 -1 5 3 -1 3 5 -1 -27 5 -25 23 12 14 9 18
-2 -1 -0 -0 -1 1 -1 -0 2 1 -0 1 0 -1 -3 -1 -0 -2 -2 -2 -5 -5 4 -3 7 2 1 0 2 5 5 1 -4 1 0 6 4 8 -9 7 -23 11 19 14
1 -0 -1 -0 -1 -1 3 2 5 2 -2 -0 0 -2 -3 -2 -4 -2 -2 0 -3 -1 -0 4 -2 9 8 0 3 3 -1 -5 -3 2 -3 -1 7 -0 6 90 9 -35 13 1
1 -1 -2 -1 -5 -3 -1 -0 2 -1 3 -2 -1 -1 -0 -2 -6 -9 -3 -1 -1 3 5 3 2 5 12 17 4 -2 -3 -3 -1 -6 -9 -7 -1 -1 -5 2 15 12 18 1
-0 -0 -1 -1 -2 -1 -2 1 3 5 -2 -1 1 -0 1 -3 -1 -8 0 1 -1 -2 1 9 7 3 2 2 3 4 -0 2 -0 -3 -2 -2 -6 -2 2 0 4 3 -1 14
-0 -1 -1 1 1 1 -2 -2 4 1 5 1 2 1 -2 1 0 -3 -1 0 0 2 8 6 11 8 2 4 1 3 2 2 6 1 3 -2 -3 -0 1 3 4 1 3 5
-1 -0 -1 -3 -3 -3 -5 -2 -4 -1 -1 4 1 -3 -7 -3 -4 -0 4 5 5 6 -4 9 7 5 3 1 1 -1 -1 -0 -5 -1 -2 -1 -3 -3 -2 -2 -1 -1 -1 3
0 -1 -0 -1 -2 -5 0 -1 -3 -8 -1 -5 -4 -2 1 -2 -3 -4 -1 7 8 -2 6 8 1 2 5 1 -0 1 -2 -6 -2 -1 0 1 -0 1 -0 -2 1 -4 -2 0
-1 -3 -0 -2 -1 -2 11 1 -2 -3 -2 -2 -1 -1 3 1 2 -3 -2 0 1 8 -0 -4 3 0 -1 -4 -11 -14 -11 -3 -1 -4 -5 -5 -2 1 0 -1 -0 -3 -7 -5
-0 -1 -2 -1 1 1 0 1 -1 -3 -3 -2 -4 2 -1 -4 -3 3 9 -0 -6 -7 3 6 9 3 -1 3 2 1 3 0 -5 -4 3 -4 -4 -3 -2 -6 -5 -2 -1 -1
1 1 -0 -1 -0 -3 0 1 1 -1 -2 -2 -1 -3 2 4 4 3 3 4 7 6 12 9 13 4 -1 1 2 -2 -5 1 0 4 1 3 5 5 4 1 -0 -0 -0 3
-1 -0 -0 -0 -1 1 0 -1 -0 2 0 -0 2 0 -5 3 5 -0 -2 -3 -3 -1 2 2 -7 -6 -3 -10 -12 -8 -2 2 -1 -2 0 1 3 5 6 3 -3 3 0 1
-2 -0 -1 0 0 -3 -2 -2 0 1 -2 5 4 5 6 6 -0 -14 -13 -4 -6 -1 -4 -2 -1 -3 2 -2 -5 -3 -6 -11 -4 1 0 -3 -5 4 -3 -0 2 0 1 -1
-1 1 -0 2 -2 0 -1 -3 1 2 -4 -2 0 -0 3 1 2 6 7 9 6 4 4 3 3 3 -1 -0 0 -2 -1 -5 -8 -9 -4 2 1 4 -4 -0 3 2 4 -1
-0 -1 -1 -0 0 -3 -1 -2 -2 -1 -2 1 2 1 -1 1 3 3 2 5 6 5 7 4 3 4 2 3 1 -1 3 -3 1 4 -2 -1 -1 2 14 5 0 1 -0 -2
-1 -1 -1 -4 -2 -2 0 -1 -1 0 0 2 1 0 1 1 3 3 5 4 3 5 4 3 2 -1 -2 2 0 4 2 1 1 -1 1 -2 7 -5 -7 -3 -4 -4 -3 1
-1 -1 -2 -1 -3 -1 -0 -1 -1 -0 1 -0 0 -4 2 2 2 -0 1 1 0 -1 2 1 0 4 6 5 4 5 7 9 6 1 -5 -5 -2 1 2 -0 -1 -3 -4 1
-1 0 -1 -2 -3 -3 -3 -3 -3 -1 0 1 0 -2 2 1 1 2 -1 1 1 2 4 6 5 3 4 2 4 2 -0 -2 -6 -8 -8 -5 -0 4 3 4 6 9 11 7
-4 -4 -5 -6 -5 -6 -8 -6 -4 -2 -1 -0 -0 -1 0 -0 2 3 4 3 3 3 2 0 -1 -4 -5 -6 -5 -5 -4 -6 -6 -6 -3 -1 -1 1 1 -0 -3 1 -0 -2
Height
3106 3107 3106 3107 3107 3108 3108 3109 3109 3109 3111 3111 3110 3108 3109 3111 3110 3111 3113 3116 3118 3121 3124 3127 3129 3139 3141 3144 3147 3150 3153 3156 3156 3158 3164 3167 3170 3173 3176 3179 3181 3183 3185 3187
3108 3106 3107 3107 3107 3108 3108 3108 3107 3107 3108 3109 3109 3105 3104 3105 3105 3105 3107 3108 3111 3115 3118 3122 3124 3126 3136 3141 3143 3144 3146 3146 3149 3153 3158 3162 3166 3170 3174 3176 3178 3179 3182 3184
3107 3109 3108 3108 3107 3107 3107 3107 3106 3107 3104 3105 3107 3103 3102 3102 3101 3099 3099 3101 3103 3106 3110 3114 3117 3120 3121 3131 3136 3138 3140 3139 3142 3147 3151 3156 3159 3163 3168 3170 3173 3176 3179 3181
3107 3108 3108 3108 3107 3107 3107 3106 3105 3104 3103 3103 3104 3103 3099 3098 3098 3097 3096 3095 3096 3098 3100 3104 3108 3111 3114 3117 3120 3125 3130 3134 3138 3141 3145 3149 3153 3156 3162 3166 3169 3172 3174 3177
3109 3109 3108 3108 3107 3107 3106 3105 3103 3101 3100 3099 3098 3101 3095 3094 3094 3093 3093 3090 3090 3090 3092 3094 3098 3102 3106 3108 3112 3117 3123 3126 3131 3135 3139 3142 3147 3152 3154 3157 3163 3167 3170 3172
3108 3108 3108 3107 3106 3105 3103 3102 3100 3097 3097 3098 3095 3096 3095 3093 3092 3091 3090 3087 3085 3083 3084 3085 3087 3092 3096 3100 3105 3111 3117 3120 3124 3127 3131 3133 3139 3145 3149 3150 3155 3160 3166 3167
3108 3107 3107 3106 3106 3103 3101 3098 3097 3099 3098 3096 3094 3094 3091 3090 3089 3088 3085 3085 3083 3081 3078 3077 3079 3082 3088 3094 3098 3103 3108 3113 3119 3123 3125 3112 3121 3131 3141 3146 3149 3154 3158 3160
3107 3107 3106 3106 3105 3103 3099 3099 3099 3098 3098 3094 3092 3089 3087 3086 3085 3084 3082 3081 3080 3078 3075 3074 3073 3074 3079 3086 3091 3096 3102 3108 3114 3117 3121 3123 3126 3126 3128 3136 3142 3148 3151 3155
3109 3108 3106 3105 3103 3104 3100 3100 3100 3099 3096 3093 3089 3088 3086 3085 3083 3082 3080 3078 3077 3075 3072 3070 3068 3069 3071 3080 3085 3090 3096 3102 3109 3113 3117 3120 3123 3126 3126 3124 3128 3140 3143 3147
3109 3108 3106 3105 3103 3101 3100 3100 3099 3098 3098 3089 3086 3086 3083 3082 3079 3077 3076 3073 3072 3071 3067 3065 3064 3065 3067 3073 3080 3085 3091 3097 3105 3110 3113 3117 3120 3122 3120 3106 3114 3121 3131 3136
3108 3109 3108 3106 3104 3101 3099 3098 3098 3097 3094 3089 3087 3086 3084 3081 3077 3073 3071 3068 3066 3064 3061 3059 3059 3062 3062 3064 3075 3081 3087 3094 3101 3106 3110 3114 3117 3118 3118 3119 3123 3125 3127 3131
3108 3107 3106 3106 3104 3103 3101 3098 3096 3095 3091 3088 3087 3086 3082 3080 3076 3072 3067 3063 3060 3060 3056 3054 3053 3056 3060 3064 3070 3076 3083 3089 3095 3099 3104 3107 3111 3113 3114 3116 3120 3121 3124 3127
3108 3107 3106 3105 3107 3105 3101 3099 3095 3091 3090 3089 3089 3087 3082 3078 3073 3070 3065 3060 3057 3053 3050 3047 3049 3052 3057 3061 3065 3071 3077 3084 3089 3094 3097 3100 3104 3108 3110 3112 3114 3119 3121 3123
3109 3108 3106 3107 3107 3106 3103 3100 3095 3091 3091 3091 3090 3086 3081 3077 3072 3068 3063 3058 3054 3049 3045 3042 3044 3049 3055 3059 3063 3067 3071 3077 3081 3086 3091 3095 3097 3100 3104 3107 3109 3112 3113 3115
3109 3109 3108 3107 3106 3105 3103 3101 3098 3095 3093 3092 3090 3086 3082 3077 3072 3067 3062 3058 3055 3052 3046 3042 3044 3048 3053 3058 3061 3064 3067 3071 3075 3079 3084 3088 3091 3094 3096 3099 3102 3105 3106 3107
3108 3108 3107 3107 3106 3105 3103 3101 3100 3098 3095 3093 3088 3085 3083 3078 3073 3068 3062 3058 3054 3051 3047 3043 3043 3048 3052 3055 3058 3061 3065 3067 3069 3071 3074 3079 3083 3085 3088 3090 3093 3095 3097 3099
3107 3107 3107 3106 3105 3104 3104 3102 3100 3098 3096 3094 3089 3085 3082 3078 3073 3068 3064 3060 3057 3053 3048 3045 3041 3043 3046 3047 3050 3052 3055 3058 3061 3063 3066 3070 3073 3076 3079 3082 3085 3088 3090 3092
3106 3106 3106 3106 3104 3106 3100 3099 3098 3097 3095 3093 3089 3085 3080 3077 3072 3069 3065 3061 3058 3053 3049 3046 3043 3042 3041 3041 3042 3043 3046 3048 3051 3052 3054 3058 3061 3065 3070 3073 3075 3078 3080 3083
3106 3105 3105 3105 3103 3101 3098 3097 3096 3095 3095 3092 3089 3085 3080 3076 3073 3070 3065 3061 3057 3053 3050 3047 3046 3044 3042 3039 3038 3035 3034 3036 3039 3042 3045 3048 3051 3055 3058 3061 3065 3067 3069 3071
3106 3104 3105 3103 3103 3099 3096 3095 3094 3093 3093 3090 3086 3083 3079 3076 3074 3069 3064 3061 3058 3054 3052 3051 3049 3046 3044 3042 3037 3030 3026 3026 3028 3031 3033 3036 3039 3042 3047 3050 3054 3057 3059 3060
3104 3102 3101 3100 3099 3095 3094 3094 3093 3094 3097 3089 3085 3081 3077 3074 3072 3068 3064 3062 3057 3054 3050 3047 3046 3044 3043 3040 3036 3030 3024 3022 3024 3025 3026 3026 3026 3031 3036 3040 3044 3047 3049 3050
3102 3101 3098 3098 3096 3094 3092 3093 3093 3093 3090 3087 3084 3081 3077 3074 3072 3070 3067 3065 3062 3059 3056 3054 3051 3048 3045 3042 3037 3032 3027 3025 3024 3024 3023 3023 3024 3025 3028 3031 3035 3038 3040 3042
3100 3100 3098 3097 3093 3091 3090 3090 3091 3090 3089 3088 3085 3082 3078 3076 3074 3072 3069 3067 3065 3062 3060 3058 3054 3050 3048 3044 3041 3037 3033 3030 3026 3024 3023 3024 3024 3025 3025 3027 3029 3031 3033 3034
3097 3096 3093 3093 3090 3088 3088 3089 3090 3090 3090 3088 3086 3083 3080 3079 3076 3074 3072 3071 3069 3067 3063 3060 3058 3055 3051 3047 3043 3039 3036 3032 3029 3029 3026 3024 3023 3024 3025 3026 3028 3029 3030 3031
3097 3095 3092 3090 3088 3088 3088 3089 3090 3090 3090 3088 3086 3084 3083 3081 3080 3078 3075 3073 3071 3069 3066 3063 3060 3056 3053 3050 3047 3045 3042 3040 3038 3036 3033 3030 3027 3027 3026 3025 3024 3025 3025 3025
3095 3094 3092 3090 3089 3090 3090 3091 3091 3091 3090 3089 3087 3086 3085 3083 3081 3080 3077 3075 3073 3072 3069 3067 3063 3061 3058 3055 3053 3050 3047 3045 3042 3039 3037 3035 3032 3030 3029 3029 3029 3027 3025 3025